Time,TemperatureF,DewpointF,PressureIn,WindDirection,WindDirectionDegrees,WindSpeedMPH,WindSpeedGustMPH,Humidity,HourlyPrecipIn,Conditions,Clouds,dailyrainin,SoftwareType,DateUTC
2013-04-22 00:01:00,75.7,73.5,30.06,NNW,342,0.0,0.0,93,0.00,,,0.00,Wunderground v.1.15,2013-04-22 04:01:00,
2013-04-22 00:02:00,75.7,73.5,30.07,NNW,345,0.0,0.0,93,0.00,,,0.00,Wunderground v.1.15,2013-04-22 04:02:00,
2013-04-22 00:03:00,75.7,73.8,30.06,NW,316,0.0,0.0,94,0.00,,,0.00,Wunderground v.1.15,2013-04-22 04:03:00,
2013-04-22 00:07:00,75.6,73.8,30.07,NW,323,0.0,0.0,94,0.00,,,0.00,Wunderground v.1.15,2013-04-22 04:07:00,
2013-04-22 00:12:00,75.5,73.7,30.07,WNW,300,0.0,0.0,94,0.00,,,0.00,Wunderground v.1.15,2013-04-22 04:12:00,
2013-04-22 00:13:00,75.5,73.7,30.07,West,278,0.0,0.0,94,0.00,,,0.00,Wunderground v.1.15,2013-04-22 04:13:00,
2013-04-22 00:18:00,75.3,73.5,30.07,WNW,290,0.0,0.0,94,0.00,,,0.00,Wunderground v.1.15,2013-04-22 04:18:00,
2013-04-22 00:23:00,75.1,73.3,30.07,NE,40,0.0,0.0,94,0.00,,,0.00,Wunderground v.1.15,2013-04-22 04:23:00,
2013-04-22 00:28:00,75.0,73.2,30.07,WNW,285,0.0,1.0,94,0.00,,,0.00,Wunderground v.1.15,2013-04-22 04:28:00,
2013-04-22 00:34:00,74.8,73.0,30.07,NNW,347,0.0,0.0,94,0.00,,,0.00,Wunderground v.1.15,2013-04-22 04:34:00,
2013-04-22 00:39:00,74.6,72.8,30.07,NNE,30,0.0,1.0,94,0.00,,,0.00,Wunderground v.1.15,2013-04-22 04:39:00,
2013-04-22 00:45:00,74.5,72.3,30.06,North,360,0.0,0.0,93,0.00,,,0.00,Wunderground v.1.15,2013-04-22 04:45:00,
2013-04-22 00:50:00,74.4,72.2,30.06,West,274,0.0,0.0,93,0.00,,,0.00,Wunderground v.1.15,2013-04-22 04:50:00,
2013-04-22 00:55:00,74.3,72.1,30.06,NNW,338,0.0,1.0,93,0.00,,,0.00,Wunderground v.1.15,2013-04-22 04:55:00,
2013-04-22 01:00:00,74.1,71.9,30.06,North,353,0.0,0.0,93,0.00,,,0.00,Wunderground v.1.15,2013-04-22 05:00:00,
2013-04-22 01:06:00,73.8,71.6,30.05,NE,44,0.0,0.0,93,0.00,,,0.00,Wunderground v.1.15,2013-04-22 05:06:00,
2013-04-22 01:11:00,73.5,71.0,30.05,NNE,32,0.0,1.0,92,0.00,,,0.00,Wunderground v.1.15,2013-04-22 05:11:00,
2013-04-22 01:16:00,73.3,70.8,30.06,NNE,26,0.0,1.0,92,0.00,,,0.00,Wunderground v.1.15,2013-04-22 05:16:00,
2013-04-22 01:21:00,73.2,71.1,30.05,NNE,26,0.0,0.0,93,0.00,,,0.00,Wunderground v.1.15,2013-04-22 05:21:00,
2013-04-22 01:26:00,73.2,70.7,30.05,North,360,0.0,0.0,92,0.00,,,0.00,Wunderground v.1.15,2013-04-22 05:26:00,
2013-04-22 01:32:00,73.0,70.5,30.06,North,6,0.0,0.0,92,0.00,,,0.00,Wunderground v.1.15,2013-04-22 05:32:00,
2013-04-22 01:37:00,73.0,70.5,30.06,North,360,0.0,1.0,92,0.00,,,0.00,Wunderground v.1.15,2013-04-22 05:37:00,
2013-04-22 01:42:00,73.0,70.5,30.05,NNW,345,0.0,0.0,92,0.00,,,0.00,Wunderground v.1.15,2013-04-22 05:42:00,
2013-04-22 01:47:00,72.9,70.1,30.05,NE,37,0.0,0.0,91,0.00,,,0.00,Wunderground v.1.15,2013-04-22 05:47:00,
2013-04-22 01:52:00,72.9,70.1,30.05,NNE,16,0.0,0.0,91,0.00,,,0.00,Wunderground v.1.15,2013-04-22 05:52:00,
2013-04-22 01:58:00,72.9,70.1,30.05,NE,36,0.0,0.0,91,0.00,,,0.00,Wunderground v.1.15,2013-04-22 05:58:00,
2013-04-22 02:04:00,73.0,70.2,30.05,NNE,29,0.0,0.0,91,0.00,,,0.00,Wunderground v.1.15,2013-04-22 06:04:00,
2013-04-22 02:09:00,72.9,70.1,30.05,North,360,0.0,0.0,91,0.00,,,0.00,Wunderground v.1.15,2013-04-22 06:09:00,
2013-04-22 02:14:00,72.9,70.1,30.04,North,360,0.0,0.0,91,0.00,,,0.00,Wunderground v.1.15,2013-04-22 06:14:00,
2013-04-22 02:19:00,72.8,70.0,30.04,NNW,330,0.0,1.0,91,0.00,,,0.00,Wunderground v.1.15,2013-04-22 06:19:00,
2013-04-22 02:24:00,72.8,70.3,30.03,NNW,330,0.0,0.0,92,0.00,,,0.00,Wunderground v.1.15,2013-04-22 06:24:00,
2013-04-22 02:29:00,72.8,70.3,30.03,NNW,330,0.0,1.0,92,0.00,,,0.00,Wunderground v.1.15,2013-04-22 06:29:00,
2013-04-22 02:34:00,72.8,70.3,30.03,NNE,23,0.0,1.0,92,0.00,,,0.00,Wunderground v.1.15,2013-04-22 06:34:00,
2013-04-22 02:39:00,72.8,70.3,30.03,NNE,22,0.0,1.0,92,0.00,,,0.00,Wunderground v.1.15,2013-04-22 06:39:00,
2013-04-22 02:44:00,72.9,70.4,30.02,NNW,345,1.0,1.0,92,0.00,,,0.00,Wunderground v.1.15,2013-04-22 06:44:00,
2013-04-22 02:49:00,72.9,70.4,30.02,NW,309,0.0,1.0,92,0.00,,,0.00,Wunderground v.1.15,2013-04-22 06:49:00,
2013-04-22 02:54:00,73.0,70.5,30.02,WNW,290,0.0,1.0,92,0.00,,,0.00,Wunderground v.1.15,2013-04-22 06:54:00,
2013-04-22 02:59:00,73.1,70.6,30.01,NW,323,0.0,2.0,92,0.00,,,0.00,Wunderground v.1.15,2013-04-22 06:59:00,
2013-04-22 03:04:00,73.2,70.7,30.01,WNW,284,0.0,2.0,92,0.00,,,0.00,Wunderground v.1.15,2013-04-22 07:04:00,
2013-04-22 03:09:00,73.2,70.7,30.01,WNW,297,0.0,2.0,92,0.00,,,0.00,Wunderground v.1.15,2013-04-22 07:09:00,
2013-04-22 03:14:00,73.2,70.7,30.01,WNW,302,0.0,2.0,92,0.00,,,0.00,Wunderground v.1.15,2013-04-22 07:14:00,
2013-04-22 03:19:00,73.3,70.8,30.01,WNW,283,0.0,2.0,92,0.00,,,0.00,Wunderground v.1.15,2013-04-22 07:19:00,
2013-04-22 03:24:00,73.4,71.3,30.01,West,271,2.0,2.0,93,0.00,,,0.00,Wunderground v.1.15,2013-04-22 07:24:00,
2013-04-22 03:29:00,73.4,70.9,30.01,West,271,1.0,3.0,92,0.00,,,0.00,Wunderground v.1.15,2013-04-22 07:29:00,
2013-04-22 03:34:00,73.3,70.8,30.00,WNW,294,1.0,2.0,92,0.00,,,0.00,Wunderground v.1.15,2013-04-22 07:34:00,
2013-04-22 03:39:00,73.3,71.2,30.00,WNW,284,0.0,2.0,93,0.00,,,0.00,Wunderground v.1.15,2013-04-22 07:39:00,
2013-04-22 03:44:00,73.3,71.2,30.00,West,280,0.0,1.0,93,0.00,,,0.01,Wunderground v.1.15,2013-04-22 07:44:00,
2013-04-22 03:49:00,73.3,71.2,30.00,West,274,0.0,3.0,93,0.00,,,0.01,Wunderground v.1.15,2013-04-22 07:49:00,
2013-04-22 03:54:00,73.2,71.1,30.00,WNW,287,0.0,2.0,93,0.00,,,0.01,Wunderground v.1.15,2013-04-22 07:54:00,
2013-04-22 03:59:00,73.1,71.0,30.00,WNW,288,0.0,2.0,93,0.00,,,0.01,Wunderground v.1.15,2013-04-22 07:59:00,
2013-04-22 04:04:00,73.0,71.2,30.00,WNW,288,0.0,1.0,94,0.00,,,0.01,Wunderground v.1.15,2013-04-22 08:04:00,
2013-04-22 04:09:00,73.0,71.2,30.00,WNW,295,0.0,1.0,94,0.00,,,0.01,Wunderground v.1.15,2013-04-22 08:09:00,
2013-04-22 04:14:00,73.0,71.2,30.00,North,1,0.0,0.0,94,0.00,,,0.01,Wunderground v.1.15,2013-04-22 08:14:00,
2013-04-22 04:19:00,72.9,71.1,30.00,NW,305,0.0,1.0,94,0.00,,,0.01,Wunderground v.1.15,2013-04-22 08:19:00,
2013-04-22 04:24:00,72.9,71.1,30.00,NE,41,0.0,2.0,94,0.00,,,0.01,Wunderground v.1.15,2013-04-22 08:24:00,
2013-04-22 04:29:00,72.9,71.1,30.00,NE,39,0.0,2.0,94,0.00,,,0.01,Wunderground v.1.15,2013-04-22 08:29:00,
2013-04-22 04:34:00,72.8,71.3,30.00,NE,40,0.0,0.0,95,0.00,,,0.01,Wunderground v.1.15,2013-04-22 08:34:00,
2013-04-22 04:39:00,72.8,71.3,30.00,North,352,0.0,1.0,95,0.00,,,0.01,Wunderground v.1.15,2013-04-22 08:39:00,
2013-04-22 04:44:00,72.7,71.2,30.00,West,271,0.0,1.0,95,0.00,,,0.01,Wunderground v.1.15,2013-04-22 08:44:00,
2013-04-22 04:49:00,72.8,71.3,30.00,NE,39,1.0,1.0,95,0.00,,,0.01,Wunderground v.1.15,2013-04-22 08:49:00,
2013-04-22 04:54:00,72.7,71.2,30.00,NNE,15,0.0,0.0,95,0.00,,,0.01,Wunderground v.1.15,2013-04-22 08:54:00,
2013-04-22 04:59:00,72.7,71.2,30.00,ENE,61,0.0,1.0,95,0.00,,,0.01,Wunderground v.1.15,2013-04-22 08:59:00,
2013-04-22 05:04:00,72.7,71.2,30.00,West,274,0.0,1.0,95,0.00,,,0.01,Wunderground v.1.15,2013-04-22 09:04:00,
2013-04-22 05:09:00,72.7,71.2,30.01,North,9,0.0,1.0,95,0.00,,,0.01,Wunderground v.1.15,2013-04-22 09:09:00,
2013-04-22 05:14:00,72.7,71.2,30.01,NNE,32,0.0,1.0,95,0.00,,,0.01,Wunderground v.1.15,2013-04-22 09:14:00,
2013-04-22 05:19:00,72.8,71.3,30.01,NNE,24,0.0,2.0,95,0.00,,,0.01,Wunderground v.1.15,2013-04-22 09:19:00,
2013-04-22 05:24:00,72.8,71.3,30.01,NE,46,0.0,1.0,95,0.00,,,0.01,Wunderground v.1.15,2013-04-22 09:24:00,
2013-04-22 05:29:00,72.7,71.2,30.01,NE,43,0.0,1.0,95,0.00,,,0.01,Wunderground v.1.15,2013-04-22 09:29:00,
2013-04-22 05:34:00,72.7,71.2,30.01,North,4,0.0,2.0,95,0.00,,,0.01,Wunderground v.1.15,2013-04-22 09:34:00,
2013-04-22 05:39:00,72.7,71.2,30.01,NNE,20,0.0,2.0,95,0.00,,,0.01,Wunderground v.1.15,2013-04-22 09:39:00,
2013-04-22 05:44:00,72.7,71.2,30.01,NW,304,0.0,3.0,95,0.00,,,0.01,Wunderground v.1.15,2013-04-22 09:44:00,
2013-04-22 05:49:00,72.7,71.2,30.01,NNE,25,0.0,3.0,95,0.00,,,0.01,Wunderground v.1.15,2013-04-22 09:49:00,
2013-04-22 05:54:00,72.7,71.2,30.01,NE,37,0.0,2.0,95,0.00,,,0.01,Wunderground v.1.15,2013-04-22 09:54:00,
2013-04-22 05:59:00,72.7,71.2,30.01,NNE,20,0.0,3.0,95,0.00,,,0.01,Wunderground v.1.15,2013-04-22 09:59:00,
2013-04-22 06:04:00,72.7,71.2,30.01,NE,54,0.0,1.0,95,0.00,,,0.01,Wunderground v.1.15,2013-04-22 10:04:00,
2013-04-22 06:09:00,72.7,71.2,30.01,NE,48,0.0,3.0,95,0.00,,,0.01,Wunderground v.1.15,2013-04-22 10:09:00,
2013-04-22 06:14:00,72.6,71.1,30.01,NE,41,0.0,4.0,95,0.00,,,0.01,Wunderground v.1.15,2013-04-22 10:14:00,
2013-04-22 06:19:00,72.6,71.1,30.01,NNE,22,0.0,4.0,95,0.00,,,0.01,Wunderground v.1.15,2013-04-22 10:19:00,
2013-04-22 06:24:00,72.6,71.1,30.01,NNE,29,0.0,4.0,95,0.00,,,0.01,Wunderground v.1.15,2013-04-22 10:24:00,
2013-04-22 06:29:00,72.7,71.2,30.01,NNE,22,1.0,4.0,95,0.00,,,0.01,Wunderground v.1.15,2013-04-22 10:29:00,
2013-04-22 06:34:00,72.7,71.2,30.01,NE,55,0.0,2.0,95,0.00,,,0.01,Wunderground v.1.15,2013-04-22 10:34:00,
2013-04-22 06:39:00,72.7,71.2,30.01,NE,55,0.0,4.0,95,0.00,,,0.01,Wunderground v.1.15,2013-04-22 10:39:00,
2013-04-22 06:44:00,72.7,71.2,30.01,NE,46,0.0,2.0,95,0.00,,,0.01,Wunderground v.1.15,2013-04-22 10:44:00,
2013-04-22 06:49:00,72.7,71.2,30.01,ENE,77,0.0,5.0,95,0.00,,,0.01,Wunderground v.1.15,2013-04-22 10:49:00,
2013-04-22 06:54:00,72.7,71.2,30.01,NE,48,0.0,4.0,95,0.00,,,0.01,Wunderground v.1.15,2013-04-22 10:54:00,
2013-04-22 06:59:00,72.8,71.3,30.01,East,93,0.0,5.0,95,0.00,,,0.01,Wunderground v.1.15,2013-04-22 10:59:00,
2013-04-22 07:04:00,72.9,71.4,30.01,East,82,3.0,3.0,95,0.00,,,0.01,Wunderground v.1.15,2013-04-22 11:04:00,
2013-04-22 07:09:00,72.9,71.4,30.02,East,98,1.0,4.0,95,0.00,,,0.01,Wunderground v.1.15,2013-04-22 11:09:00,
2013-04-22 07:14:00,72.9,71.1,30.02,ENE,63,0.0,5.0,94,0.00,,,0.01,Wunderground v.1.15,2013-04-22 11:14:00,
2013-04-22 07:19:00,72.5,70.4,30.02,East,86,3.0,6.0,93,0.00,,,0.01,Wunderground v.1.15,2013-04-22 11:19:00,
2013-04-22 07:25:00,72.2,70.1,30.02,East,84,0.0,6.0,93,0.00,,,0.01,Wunderground v.1.15,2013-04-22 11:25:00,
2013-04-22 07:30:00,72.2,69.7,30.02,ENE,75,0.0,6.0,92,0.00,,,0.01,Wunderground v.1.15,2013-04-22 11:30:00,
2013-04-22 07:35:00,72.2,69.7,30.02,ESE,107,0.0,6.0,92,0.00,,,0.01,Wunderground v.1.15,2013-04-22 11:35:00,
2013-04-22 07:39:00,72.1,70.0,30.02,East,91,6.0,7.0,93,0.00,,,0.01,Wunderground v.1.15,2013-04-22 11:39:00,
2013-04-22 07:44:00,72.0,69.9,30.03,ESE,108,3.0,5.0,93,0.00,,,0.01,Wunderground v.1.15,2013-04-22 11:44:00,
2013-04-22 07:50:00,72.0,69.9,30.03,East,87,3.0,3.0,93,0.00,,,0.01,Wunderground v.1.15,2013-04-22 11:50:00,
2013-04-22 07:55:00,72.0,70.2,30.03,ENE,78,2.0,5.0,94,0.00,,,0.01,Wunderground v.1.15,2013-04-22 11:55:00,
2013-04-22 08:00:00,72.1,70.3,30.04,East,79,1.0,2.0,94,0.00,,,0.01,Wunderground v.1.15,2013-04-22 12:00:00,
2013-04-22 08:05:00,72.2,70.4,30.04,NW,305,1.0,6.0,94,0.00,,,0.01,Wunderground v.1.15,2013-04-22 12:05:00,
2013-04-22 08:10:00,72.2,70.4,30.04,East,86,3.0,3.0,94,0.00,,,0.01,Wunderground v.1.15,2013-04-22 12:10:00,
2013-04-22 08:15:00,72.4,70.6,30.04,ESE,110,3.0,7.0,94,0.00,,,0.01,Wunderground v.1.15,2013-04-22 12:15:00,
2013-04-22 08:20:00,72.5,70.4,30.04,East,94,0.0,3.0,93,0.00,,,0.01,Wunderground v.1.15,2013-04-22 12:20:00,
2013-04-22 08:25:00,72.6,70.5,30.04,East,86,1.0,5.0,93,0.00,,,0.01,Wunderground v.1.15,2013-04-22 12:25:00,
2013-04-22 08:30:00,72.7,70.2,30.04,ESE,117,0.0,2.0,92,0.00,,,0.01,Wunderground v.1.15,2013-04-22 12:30:00,
2013-04-22 08:35:00,72.8,70.0,30.04,East,97,0.0,7.0,91,0.00,,,0.01,Wunderground v.1.15,2013-04-22 12:35:00,
2013-04-22 08:40:00,73.0,70.2,30.04,East,87,0.0,2.0,91,0.00,,,0.01,Wunderground v.1.15,2013-04-22 12:40:00,
2013-04-22 08:45:00,73.2,70.4,30.04,ENE,76,8.0,8.0,91,0.00,,,0.01,Wunderground v.1.15,2013-04-22 12:45:00,
2013-04-22 08:50:00,73.3,70.5,30.04,ESE,111,3.0,5.0,91,0.00,,,0.01,Wunderground v.1.15,2013-04-22 12:50:00,
2013-04-22 08:55:00,73.5,71.0,30.04,ENE,58,2.0,7.0,92,0.00,,,0.01,Wunderground v.1.15,2013-04-22 12:55:00,
2013-04-22 09:00:00,73.4,70.6,30.04,East,87,0.0,2.0,91,0.00,,,0.01,Wunderground v.1.15,2013-04-22 13:00:00,
2013-04-22 09:05:00,73.5,70.7,30.04,South,174,0.0,7.0,91,0.00,,,0.01,Wunderground v.1.15,2013-04-22 13:05:00,
2013-04-22 09:10:00,73.8,71.0,30.04,ENE,70,2.0,2.0,91,0.00,,,0.01,Wunderground v.1.15,2013-04-22 13:10:00,
2013-04-22 09:15:00,73.9,71.1,30.05,East,79,0.0,8.0,91,0.00,,,0.01,Wunderground v.1.15,2013-04-22 13:15:00,
2013-04-22 09:20:00,74.0,70.9,30.05,East,88,0.0,5.0,90,0.00,,,0.01,Wunderground v.1.15,2013-04-22 13:20:00,
2013-04-22 09:25:00,74.3,71.5,30.05,SW,225,0.0,5.0,91,0.00,,,0.01,Wunderground v.1.15,2013-04-22 13:25:00,
2013-04-22 09:30:00,74.6,71.5,30.06,East,92,0.0,1.0,90,0.00,,,0.01,Wunderground v.1.15,2013-04-22 13:30:00,
2013-04-22 09:35:00,74.7,71.2,30.06,ENE,60,2.0,6.0,89,0.00,,,0.01,Wunderground v.1.15,2013-04-22 13:35:00,
2013-04-22 09:40:00,74.8,71.0,30.05,ENE,68,1.0,4.0,88,0.00,,,0.01,Wunderground v.1.15,2013-04-22 13:40:00,
2013-04-22 09:45:00,75.0,71.5,30.05,East,81,0.0,4.0,89,0.00,,,0.01,Wunderground v.1.15,2013-04-22 13:45:00,
2013-04-22 09:50:00,75.2,71.4,30.06,ESE,122,2.0,3.0,88,0.00,,,0.01,Wunderground v.1.15,2013-04-22 13:50:00,
2013-04-22 09:55:00,75.3,71.2,30.06,East,96,4.0,6.0,87,0.00,,,0.01,Wunderground v.1.15,2013-04-22 13:55:00,
2013-04-22 10:00:00,75.3,71.2,30.06,East,91,5.0,5.0,87,0.00,,,0.01,Wunderground v.1.15,2013-04-22 14:00:00,
2013-04-22 10:05:00,75.5,71.4,30.06,ESE,108,0.0,5.0,87,0.00,,,0.01,Wunderground v.1.15,2013-04-22 14:05:00,
2013-04-22 10:10:00,75.7,71.2,30.06,ESE,106,0.0,1.0,86,0.00,,,0.01,Wunderground v.1.15,2013-04-22 14:10:00,
2013-04-22 10:15:00,75.7,71.2,30.06,SSE,159,0.0,8.0,86,0.00,,,0.01,Wunderground v.1.15,2013-04-22 14:15:00,
2013-04-22 10:20:00,75.9,71.4,30.06,ESE,117,0.0,2.0,86,0.00,,,0.01,Wunderground v.1.15,2013-04-22 14:20:00,
2013-04-22 10:25:00,76.1,71.3,30.07,East,79,2.0,5.0,85,0.00,,,0.01,Wunderground v.1.15,2013-04-22 14:25:00,
2013-04-22 10:30:00,76.3,71.5,30.07,East,86,0.0,2.0,85,0.00,,,0.01,Wunderground v.1.15,2013-04-22 14:30:00,
2013-04-22 10:35:00,76.5,71.3,30.07,East,101,2.0,6.0,84,0.00,,,0.01,Wunderground v.1.15,2013-04-22 14:35:00,
2013-04-22 10:40:00,76.8,71.6,30.07,East,80,0.0,2.0,84,0.00,,,0.01,Wunderground v.1.15,2013-04-22 14:40:00,
2013-04-22 10:45:00,76.9,71.3,30.07,ENE,75,0.0,6.0,83,0.00,,,0.01,Wunderground v.1.15,2013-04-22 14:45:00,
2013-04-22 10:50:00,77.0,71.4,30.07,ESE,103,3.0,4.0,83,0.00,,,0.01,Wunderground v.1.15,2013-04-22 14:50:00,
2013-04-22 10:55:00,76.9,71.3,30.07,ESE,111,0.0,6.0,83,0.00,,,0.01,Wunderground v.1.15,2013-04-22 14:55:00,
2013-04-22 11:01:00,76.8,70.9,30.07,ESE,108,3.0,5.0,82,0.00,,,0.01,Wunderground v.1.15,2013-04-22 15:01:00,
2013-04-22 11:06:00,77.0,71.4,30.07,ESE,106,1.0,5.0,83,0.00,,,0.01,Wunderground v.1.15,2013-04-22 15:06:00,
2013-04-22 11:11:00,77.3,72.1,30.07,ESE,104,2.0,3.0,84,0.00,,,0.01,Wunderground v.1.15,2013-04-22 15:11:00,
2013-04-22 11:16:00,77.4,71.1,30.07,SSE,159,1.0,6.0,81,0.00,,,0.01,Wunderground v.1.15,2013-04-22 15:16:00,
2013-04-22 11:21:00,77.5,71.2,30.06,ENE,63,6.0,7.0,81,0.00,,,0.01,Wunderground v.1.15,2013-04-22 15:21:00,
2013-04-22 11:26:00,77.6,71.3,30.06,East,98,0.0,8.0,81,0.00,,,0.01,Wunderground v.1.15,2013-04-22 15:26:00,
2013-04-22 11:31:00,78.0,71.3,30.06,East,80,0.0,5.0,80,0.00,,,0.01,Wunderground v.1.15,2013-04-22 15:31:00,
2013-04-22 11:36:00,77.9,71.2,30.06,ENE,73,0.0,6.0,80,0.00,,,0.01,Wunderground v.1.15,2013-04-22 15:36:00,
2013-04-22 11:41:00,78.2,71.2,30.06,East,100,2.0,3.0,79,0.00,,,0.01,Wunderground v.1.15,2013-04-22 15:41:00,
2013-04-22 11:46:00,78.8,71.7,30.06,East,82,2.0,4.0,79,0.00,,,0.01,Wunderground v.1.15,2013-04-22 15:46:00,
2013-04-22 11:51:00,79.3,71.8,30.06,East,95,4.0,4.0,78,0.00,,,0.01,Wunderground v.1.15,2013-04-22 15:51:00,
2013-04-22 11:56:00,79.6,72.5,30.06,East,93,2.0,6.0,79,0.00,,,0.01,Wunderground v.1.15,2013-04-22 15:56:00,
2013-04-22 12:01:00,79.9,72.0,30.06,East,91,0.0,5.0,77,0.00,,,0.01,Wunderground v.1.15,2013-04-22 16:01:00,
2013-04-22 12:06:00,80.1,71.8,30.05,NNW,333,2.0,6.0,76,0.00,,,0.01,Wunderground v.1.15,2013-04-22 16:06:00,
2013-04-22 12:11:00,80.5,71.8,30.05,East,79,0.0,3.0,75,0.00,,,0.01,Wunderground v.1.15,2013-04-22 16:11:00,
2013-04-22 12:16:00,80.5,71.8,30.05,ESE,108,1.0,5.0,75,0.00,,,0.01,Wunderground v.1.15,2013-04-22 16:16:00,
2013-04-22 12:21:00,80.9,72.2,30.05,East,94,1.0,4.0,75,0.00,,,0.01,Wunderground v.1.15,2013-04-22 16:21:00,
2013-04-22 12:26:00,81.5,72.4,30.04,ENE,71,4.0,6.0,74,0.00,,,0.01,Wunderground v.1.15,2013-04-22 16:26:00,
2013-04-22 12:31:00,81.8,72.3,30.04,East,91,1.0,4.0,73,0.00,,,0.01,Wunderground v.1.15,2013-04-22 16:31:00,
2013-04-22 12:36:00,81.7,72.2,30.04,ESE,107,0.0,5.0,73,0.00,,,0.01,Wunderground v.1.15,2013-04-22 16:36:00,
2013-04-22 12:41:00,82.0,72.5,30.04,SSW,210,3.0,6.0,73,0.00,,,0.01,Wunderground v.1.15,2013-04-22 16:41:00,
2013-04-22 12:46:00,82.1,72.2,30.03,SE,143,0.0,6.0,72,0.00,,,0.01,Wunderground v.1.15,2013-04-22 16:46:00,
2013-04-22 12:51:00,82.1,72.2,30.03,ESE,108,1.0,6.0,72,0.00,,,0.01,Wunderground v.1.15,2013-04-22 16:51:00,
2013-04-22 12:56:00,81.7,71.8,30.03,East,82,0.0,6.0,72,0.00,,,0.01,Wunderground v.1.15,2013-04-22 16:56:00,
2013-04-22 13:01:00,81.9,72.4,30.03,SW,228,0.0,4.0,73,0.00,,,0.01,Wunderground v.1.15,2013-04-22 17:01:00,
2013-04-22 13:06:00,82.1,72.6,30.03,ESE,109,0.0,6.0,73,0.00,,,0.01,Wunderground v.1.15,2013-04-22 17:06:00,
2013-04-22 13:11:00,82.5,72.6,30.03,SSE,167,0.0,3.0,72,0.00,,,0.01,Wunderground v.1.15,2013-04-22 17:11:00,
2013-04-22 13:16:00,83.3,73.3,30.02,South,169,0.0,5.0,72,0.00,,,0.01,Wunderground v.1.15,2013-04-22 17:16:00,
2013-04-22 13:21:00,83.1,72.3,30.02,WSW,246,0.0,4.0,70,0.00,,,0.01,Wunderground v.1.15,2013-04-22 17:21:00,
2013-04-22 13:26:00,83.1,72.3,30.02,ESE,107,2.0,8.0,70,0.00,,,0.01,Wunderground v.1.15,2013-04-22 17:26:00,
2013-04-22 13:31:00,82.8,72.4,30.02,SSW,205,0.0,6.0,71,0.00,,,0.01,Wunderground v.1.15,2013-04-22 17:31:00,
2013-04-22 13:36:00,81.9,71.2,30.01,SSW,198,0.0,8.0,70,0.00,,,0.01,Wunderground v.1.15,2013-04-22 17:36:00,
2013-04-22 13:41:00,80.4,70.5,30.01,SW,226,7.0,8.0,72,0.00,,,0.01,Wunderground v.1.15,2013-04-22 17:41:00,
2013-04-22 13:46:00,79.4,69.6,30.01,SE,146,3.0,8.0,72,0.00,,,0.01,Wunderground v.1.15,2013-04-22 17:46:00,
2013-04-22 13:51:00,79.1,70.1,30.01,SW,235,0.0,8.0,74,0.00,,,0.01,Wunderground v.1.15,2013-04-22 17:51:00,
2013-04-22 13:56:00,79.2,70.2,30.01,WSW,252,0.0,8.0,74,0.00,,,0.01,Wunderground v.1.15,2013-04-22 17:56:00,
2013-04-22 14:01:00,79.3,70.7,30.01,WSW,253,2.0,2.0,75,0.00,,,0.01,Wunderground v.1.15,2013-04-22 18:01:00,
2013-04-22 14:06:00,79.5,69.7,30.01,SW,215,1.0,3.0,72,0.00,,,0.01,Wunderground v.1.15,2013-04-22 18:06:00,
2013-04-22 14:11:00,79.5,69.7,30.00,SW,227,3.0,5.0,72,0.00,,,0.01,Wunderground v.1.15,2013-04-22 18:11:00,
2013-04-22 14:16:00,79.7,70.3,30.00,West,277,3.0,5.0,73,0.00,,,0.01,Wunderground v.1.15,2013-04-22 18:16:00,
2013-04-22 14:21:00,79.7,70.3,30.00,WSW,256,3.0,5.0,73,0.00,,,0.01,Wunderground v.1.15,2013-04-22 18:21:00,
2013-04-22 14:26:00,79.3,69.9,30.00,ESE,106,1.0,5.0,73,0.00,,,0.01,Wunderground v.1.15,2013-04-22 18:26:00,
2013-04-22 14:31:00,79.7,70.3,30.00,SE,132,0.0,1.0,73,0.00,,,0.01,Wunderground v.1.15,2013-04-22 18:31:00,
2013-04-22 14:36:00,80.3,70.4,30.00,ESE,118,2.0,2.0,72,0.00,,,0.01,Wunderground v.1.15,2013-04-22 18:36:00,
2013-04-22 14:41:00,80.7,70.8,30.00,SSW,205,0.0,1.0,72,0.00,,,0.01,Wunderground v.1.15,2013-04-22 18:41:00,
2013-04-22 14:46:00,81.0,71.5,29.99,SSE,166,0.0,2.0,73,0.00,,,0.01,Wunderground v.1.15,2013-04-22 18:46:00,
2013-04-22 14:51:00,81.0,71.9,29.99,SSW,201,0.0,1.0,74,0.00,,,0.01,Wunderground v.1.15,2013-04-22 18:51:00,
2013-04-22 14:56:00,81.0,72.7,29.99,SW,233,0.0,2.0,76,0.00,,,0.01,Wunderground v.1.15,2013-04-22 18:56:00,
2013-04-22 15:02:00,81.4,72.3,29.99,ESE,114,0.0,1.0,74,0.00,,,0.01,Wunderground v.1.15,2013-04-22 19:02:00,
2013-04-22 15:07:00,81.8,72.7,29.98,WNW,290,0.0,4.0,74,0.00,,,0.01,Wunderground v.1.15,2013-04-22 19:07:00,
2013-04-22 15:12:00,82.0,72.9,29.98,SSW,210,0.0,1.0,74,0.00,,,0.01,Wunderground v.1.15,2013-04-22 19:12:00,
2013-04-22 15:17:00,82.5,73.0,29.97,SSW,211,0.0,8.0,73,0.00,,,0.01,Wunderground v.1.15,2013-04-22 19:17:00,
2013-04-22 15:22:00,82.5,72.6,29.97,East,89,1.0,2.0,72,0.00,,,0.01,Wunderground v.1.15,2013-04-22 19:22:00,
2013-04-22 15:27:00,82.7,73.2,29.97,ESE,115,0.0,3.0,73,0.00,,,0.01,Wunderground v.1.15,2013-04-22 19:27:00,
2013-04-22 15:32:00,83.0,73.0,29.96,SW,225,0.0,3.0,72,0.00,,,0.01,Wunderground v.1.15,2013-04-22 19:32:00,
2013-04-22 15:37:00,83.2,73.2,29.95,East,84,0.0,3.0,72,0.00,,,0.01,Wunderground v.1.15,2013-04-22 19:37:00,
2013-04-22 15:42:00,83.3,72.9,29.96,East,87,0.0,3.0,71,0.00,,,0.01,Wunderground v.1.15,2013-04-22 19:42:00,
2013-04-22 15:47:00,82.9,72.1,29.96,ESE,110,0.0,5.0,70,0.00,,,0.01,Wunderground v.1.15,2013-04-22 19:47:00,
2013-04-22 15:52:00,82.6,71.8,29.95,ENE,69,1.0,2.0,70,0.00,,,0.01,Wunderground v.1.15,2013-04-22 19:52:00,
2013-04-22 15:57:00,82.6,72.2,29.95,SE,133,0.0,2.0,71,0.00,,,0.01,Wunderground v.1.15,2013-04-22 19:57:00,
2013-04-22 16:02:00,82.4,71.6,29.95,East,98,1.0,3.0,70,0.00,,,0.01,Wunderground v.1.15,2013-04-22 20:02:00,
2013-04-22 16:07:00,82.3,72.4,29.94,South,172,0.0,3.0,72,0.00,,,0.01,Wunderground v.1.15,2013-04-22 20:07:00,
2013-04-22 16:12:00,82.0,71.7,29.94,East,91,0.0,3.0,71,0.00,,,0.01,Wunderground v.1.15,2013-04-22 20:12:00,
2013-04-22 16:18:00,81.8,71.5,29.95,SW,232,0.0,3.0,71,0.00,,,0.01,Wunderground v.1.15,2013-04-22 20:18:00,
2013-04-22 16:23:00,81.6,71.7,29.94,SW,221,1.0,3.0,72,0.00,,,0.01,Wunderground v.1.15,2013-04-22 20:23:00,
2013-04-22 16:28:00,81.4,71.5,29.94,SSW,210,1.0,3.0,72,0.00,,,0.01,Wunderground v.1.15,2013-04-22 20:28:00,
2013-04-22 16:33:00,81.1,71.6,29.94,SSW,197,0.0,4.0,73,0.00,,,0.01,Wunderground v.1.15,2013-04-22 20:33:00,
2013-04-22 16:38:00,80.9,71.8,29.95,South,174,2.0,4.0,74,0.00,,,0.01,Wunderground v.1.15,2013-04-22 20:38:00,
2013-04-22 16:43:00,80.7,72.0,29.94,SW,217,0.0,3.0,75,0.00,,,0.01,Wunderground v.1.15,2013-04-22 20:43:00,
2013-04-22 16:48:00,80.5,71.8,29.94,East,98,0.0,3.0,75,0.00,,,0.01,Wunderground v.1.15,2013-04-22 20:48:00,
2013-04-22 16:54:00,80.2,71.9,29.94,SE,134,0.0,2.0,76,0.00,,,0.01,Wunderground v.1.15,2013-04-22 20:54:00,
2013-04-22 16:59:00,79.9,72.0,29.94,ESE,118,3.0,3.0,77,0.00,,,0.01,Wunderground v.1.15,2013-04-22 20:59:00,
2013-04-22 17:04:00,79.7,71.8,29.95,SW,223,2.0,4.0,77,0.00,,,0.01,Wunderground v.1.15,2013-04-22 21:04:00,
2013-04-22 17:09:00,79.4,71.9,29.95,SSW,194,2.0,5.0,78,0.00,,,0.01,Wunderground v.1.15,2013-04-22 21:09:00,
2013-04-22 17:14:00,79.6,73.3,29.95,SSE,159,0.0,3.0,81,0.00,,,0.01,Wunderground v.1.15,2013-04-22 21:14:00,
2013-04-22 17:19:00,80.3,73.6,29.95,SSE,156,0.0,3.0,80,0.00,,,0.01,Wunderground v.1.15,2013-04-22 21:19:00,
2013-04-22 17:24:00,80.8,72.9,29.95,South,186,0.0,0.0,77,0.00,,,0.01,Wunderground v.1.15,2013-04-22 21:24:00,
2013-04-22 17:29:00,80.5,72.6,29.95,ESE,121,0.0,3.0,77,0.00,,,0.01,Wunderground v.1.15,2013-04-22 21:29:00,
2013-04-22 17:35:00,80.4,72.5,29.94,ESE,111,0.0,2.0,77,0.00,,,0.01,Wunderground v.1.15,2013-04-22 21:35:00,
2013-04-22 17:40:00,80.5,72.2,29.94,NNE,27,0.0,1.0,76,0.00,,,0.01,Wunderground v.1.15,2013-04-22 21:40:00,
2013-04-22 17:45:00,80.5,72.2,29.95,NNE,15,0.0,1.0,76,0.00,,,0.01,Wunderground v.1.15,2013-04-22 21:45:00,
2013-04-22 17:50:00,80.7,73.2,29.95,North,6,0.0,0.0,78,0.00,,,0.01,Wunderground v.1.15,2013-04-22 21:50:00,
2013-04-22 17:55:00,80.0,73.6,29.96,NE,37,0.0,4.0,81,0.00,,,0.01,Wunderground v.1.15,2013-04-22 21:55:00,
2013-04-22 18:00:00,78.8,72.5,29.96,NE,37,1.0,3.0,81,0.00,,,0.01,Wunderground v.1.15,2013-04-22 22:00:00,
2013-04-22 18:05:00,77.9,71.6,29.96,NNW,335,0.0,3.0,81,0.00,,,0.01,Wunderground v.1.15,2013-04-22 22:05:00,
2013-04-22 18:10:00,76.6,70.7,29.97,NNE,13,3.0,3.0,82,0.00,,,0.01,Wunderground v.1.15,2013-04-22 22:10:00,
2013-04-22 18:15:00,75.5,70.3,29.97,North,11,0.0,4.0,84,0.00,,,0.01,Wunderground v.1.15,2013-04-22 22:15:00,
2013-04-22 18:20:00,74.8,70.0,29.97,NE,34,1.0,4.0,85,0.00,,,0.01,Wunderground v.1.15,2013-04-22 22:20:00,
2013-04-22 18:25:00,73.9,69.8,29.98,NE,43,0.0,8.0,87,0.00,,,0.01,Wunderground v.1.15,2013-04-22 22:25:00,
2013-04-22 18:30:00,73.3,69.9,29.98,NNE,29,1.0,2.0,89,0.00,,,0.01,Wunderground v.1.15,2013-04-22 22:30:00,
2013-04-22 18:35:00,73.1,69.7,29.98,North,4,0.0,5.0,89,0.00,,,0.01,Wunderground v.1.15,2013-04-22 22:35:00,
2013-04-22 18:40:00,72.9,70.1,29.97,NE,51,2.0,2.0,91,0.00,,,0.01,Wunderground v.1.15,2013-04-22 22:40:00,
2013-04-22 18:45:00,72.9,70.1,29.98,NE,39,2.0,3.0,91,0.00,,,0.01,Wunderground v.1.15,2013-04-22 22:45:00,
2013-04-22 18:50:00,72.8,70.0,29.98,NE,34,0.0,1.0,91,0.55,,,0.04,Wunderground v.1.15,2013-04-22 22:50:00,
2013-04-22 18:55:00,72.4,69.6,29.99,NNE,23,1.0,5.0,91,0.88,,,0.11,Wunderground v.1.15,2013-04-22 22:55:00,
2013-04-22 19:00:00,71.6,68.8,29.99,NE,50,0.0,3.0,91,0.28,,,0.15,Wunderground v.1.15,2013-04-22 23:00:00,
2013-04-22 19:06:00,70.9,68.5,29.99,North,358,0.0,6.0,92,0.14,,,0.16,Wunderground v.1.15,2013-04-22 23:06:00,
2013-04-22 19:11:00,70.5,68.4,30.00,NE,43,1.0,1.0,93,0.11,,,0.17,Wunderground v.1.15,2013-04-22 23:11:00,
2013-04-22 19:16:00,70.4,68.6,30.00,West,280,0.0,5.0,94,0.09,,,0.17,Wunderground v.1.15,2013-04-22 23:16:00,
2013-04-22 19:21:00,70.3,68.5,30.01,NE,44,1.0,3.0,94,0.05,,,0.17,Wunderground v.1.15,2013-04-22 23:21:00,
2013-04-22 19:26:00,70.4,68.9,30.01,NNE,16,0.0,4.0,95,0.04,,,0.17,Wunderground v.1.15,2013-04-22 23:26:00,
2013-04-22 19:31:00,70.3,68.5,30.01,ENE,68,0.0,2.0,94,0.00,,,0.18,Wunderground v.1.15,2013-04-22 23:31:00,
2013-04-22 19:36:00,70.2,68.7,30.01,NE,48,0.0,3.0,95,0.00,,,0.18,Wunderground v.1.15,2013-04-22 23:36:00,
2013-04-22 19:41:00,70.2,68.7,30.02,NW,321,0.0,1.0,95,0.07,,,0.19,Wunderground v.1.15,2013-04-22 23:41:00,
2013-04-22 19:46:00,70.1,68.6,30.02,East,82,0.0,1.0,95,0.12,,,0.20,Wunderground v.1.15,2013-04-22 23:46:00,
2013-04-22 19:51:00,70.0,68.5,30.02,NNE,32,1.0,1.0,95,0.10,,,0.21,Wunderground v.1.15,2013-04-22 23:51:00,
2013-04-22 19:56:00,69.9,68.4,30.02,NE,42,0.0,2.0,95,0.08,,,0.22,Wunderground v.1.15,2013-04-22 23:56:00,
2013-04-22 20:01:00,69.8,68.3,30.01,North,9,0.0,1.0,95,0.12,,,0.23,Wunderground v.1.15,2013-04-23 00:01:00,
2013-04-22 20:06:00,69.8,68.3,30.02,NE,49,0.0,1.0,95,0.10,,,0.24,Wunderground v.1.15,2013-04-23 00:06:00,
2013-04-22 20:11:00,69.8,68.3,30.02,ENE,75,0.0,0.0,95,0.10,,,0.24,Wunderground v.1.15,2013-04-23 00:11:00,
2013-04-22 20:16:00,69.8,68.3,30.02,ENE,60,0.0,1.0,95,0.06,,,0.25,Wunderground v.1.15,2013-04-23 00:16:00,
2013-04-22 20:21:00,69.7,68.2,30.02,NE,52,0.0,2.0,95,0.06,,,0.25,Wunderground v.1.15,2013-04-23 00:21:00,
2013-04-22 20:26:00,69.6,68.1,30.02,WNW,300,0.0,2.0,95,0.08,,,0.27,Wunderground v.1.15,2013-04-23 00:26:00,
2013-04-22 20:31:00,69.6,68.1,30.02,ENE,70,0.0,1.0,95,0.07,,,0.27,Wunderground v.1.15,2013-04-23 00:31:00,
2013-04-22 20:36:00,69.6,68.1,30.02,ENE,71,0.0,1.0,95,0.04,,,0.27,Wunderground v.1.15,2013-04-23 00:36:00,
2013-04-22 20:41:00,69.7,68.5,30.02,WNW,295,0.0,0.0,96,0.00,,,0.27,Wunderground v.1.15,2013-04-23 00:41:00,
2013-04-22 20:46:00,69.6,68.1,30.02,North,353,0.0,2.0,95,0.00,,,0.27,Wunderground v.1.15,2013-04-23 00:46:00,
2013-04-22 20:51:00,69.6,68.1,30.02,North,3,0.0,0.0,95,0.00,,,0.27,Wunderground v.1.15,2013-04-23 00:51:00,
2013-04-22 20:56:00,69.6,68.1,30.02,North,3,0.0,1.0,95,0.00,,,0.28,Wunderground v.1.15,2013-04-23 00:56:00,
2013-04-22 21:01:00,69.6,68.1,30.02,North,4,0.0,0.0,95,0.00,,,0.28,Wunderground v.1.15,2013-04-23 01:01:00,
2013-04-22 21:06:00,69.6,68.1,30.02,North,3,0.0,0.0,95,0.00,,,0.28,Wunderground v.1.15,2013-04-23 01:06:00,
2013-04-22 21:11:00,69.6,68.1,30.02,North,3,0.0,0.0,95,0.00,,,0.28,Wunderground v.1.15,2013-04-23 01:11:00,
2013-04-22 21:16:00,69.6,68.4,30.02,North,3,0.0,0.0,96,0.00,,,0.28,Wunderground v.1.15,2013-04-23 01:16:00,
2013-04-22 21:21:00,69.6,68.4,30.02,North,4,0.0,0.0,96,0.00,,,0.28,Wunderground v.1.15,2013-04-23 01:21:00,
2013-04-22 21:26:00,69.8,68.6,30.03,North,3,0.0,0.0,96,0.00,,,0.29,Wunderground v.1.15,2013-04-23 01:26:00,
2013-04-22 21:31:00,69.7,68.2,30.03,North,3,0.0,0.0,95,0.00,,,0.29,Wunderground v.1.15,2013-04-23 01:31:00,
2013-04-22 21:36:00,69.7,68.2,30.03,North,3,0.0,0.0,95,0.00,,,0.29,Wunderground v.1.15,2013-04-23 01:36:00,
2013-04-22 21:41:00,69.7,68.2,30.03,North,3,0.0,0.0,95,0.00,,,0.29,Wunderground v.1.15,2013-04-23 01:41:00,
2013-04-22 21:46:00,69.8,68.3,30.04,North,4,0.0,0.0,95,0.00,,,0.29,Wunderground v.1.15,2013-04-23 01:46:00,
2013-04-22 21:51:00,69.8,68.6,30.03,North,4,0.0,0.0,96,0.00,,,0.29,Wunderground v.1.15,2013-04-23 01:51:00,
2013-04-22 21:56:00,69.9,68.7,30.04,East,90,0.0,1.0,96,0.00,,,0.29,Wunderground v.1.15,2013-04-23 01:56:00,
2013-04-22 22:01:00,69.8,68.6,30.04,ENE,70,0.0,0.0,96,0.00,,,0.29,Wunderground v.1.15,2013-04-23 02:01:00,
2013-04-22 22:06:00,69.8,68.6,30.04,ENE,70,0.0,0.0,96,0.00,,,0.29,Wunderground v.1.15,2013-04-23 02:06:00,
2013-04-22 22:11:00,69.8,68.6,30.04,ENE,70,0.0,1.0,96,0.00,,,0.29,Wunderground v.1.15,2013-04-23 02:11:00,
2013-04-22 22:16:00,69.9,68.7,30.04,ENE,69,0.0,1.0,96,0.00,,,0.29,Wunderground v.1.15,2013-04-23 02:16:00,
2013-04-22 22:21:00,69.8,68.6,30.04,ENE,70,0.0,0.0,96,0.00,,,0.29,Wunderground v.1.15,2013-04-23 02:21:00,
2013-04-22 22:26:00,69.8,68.6,30.04,ENE,69,0.0,0.0,96,0.00,,,0.29,Wunderground v.1.15,2013-04-23 02:26:00,
2013-04-22 22:31:00,69.7,68.5,30.04,ENE,70,0.0,0.0,96,0.00,,,0.29,Wunderground v.1.15,2013-04-23 02:31:00,
2013-04-22 22:36:00,69.7,68.5,30.04,ENE,70,0.0,0.0,96,0.00,,,0.29,Wunderground v.1.15,2013-04-23 02:36:00,
2013-04-22 22:41:00,69.7,68.5,30.04,ENE,70,0.0,0.0,96,0.00,,,0.29,Wunderground v.1.15,2013-04-23 02:41:00,
2013-04-22 22:46:00,69.7,68.5,30.04,ENE,70,0.0,0.0,96,0.00,,,0.29,Wunderground v.1.15,2013-04-23 02:46:00,
2013-04-22 22:51:00,69.6,68.4,30.04,ENE,70,0.0,0.0,96,0.00,,,0.29,Wunderground v.1.15,2013-04-23 02:51:00,
2013-04-22 22:56:00,69.5,68.3,30.04,ENE,70,0.0,0.0,96,0.00,,,0.29,Wunderground v.1.15,2013-04-23 02:56:00,
2013-04-22 23:01:00,69.5,68.3,30.04,ENE,69,0.0,0.0,96,0.00,,,0.29,Wunderground v.1.15,2013-04-23 03:01:00,
2013-04-22 23:07:00,69.5,68.3,30.04,ENE,61,0.0,1.0,96,0.00,,,0.29,Wunderground v.1.15,2013-04-23 03:07:00,
2013-04-22 23:12:00,69.5,68.3,30.04,NNE,23,0.0,1.0,96,0.00,,,0.29,Wunderground v.1.15,2013-04-23 03:12:00,
2013-04-22 23:17:00,69.6,68.4,30.04,NNE,23,0.0,1.0,96,0.00,,,0.29,Wunderground v.1.15,2013-04-23 03:17:00,
2013-04-22 23:22:00,69.6,68.4,30.04,North,8,0.0,0.0,96,0.00,,,0.29,Wunderground v.1.15,2013-04-23 03:22:00,
2013-04-22 23:27:00,69.6,68.4,30.04,NNE,32,0.0,1.0,96,0.00,,,0.29,Wunderground v.1.15,2013-04-23 03:27:00,
2013-04-22 23:32:00,69.6,68.4,30.04,NNE,23,0.0,1.0,96,0.00,,,0.29,Wunderground v.1.15,2013-04-23 03:32:00,
2013-04-22 23:37:00,69.7,68.5,30.04,NE,36,0.0,2.0,96,0.00,,,0.29,Wunderground v.1.15,2013-04-23 03:37:00,
2013-04-22 23:42:00,69.8,68.6,30.04,ENE,63,0.0,1.0,96,0.00,,,0.29,Wunderground v.1.15,2013-04-23 03:42:00,
2013-04-22 23:47:00,69.9,68.7,30.03,NE,47,0.0,1.0,96,0.00,,,0.29,Wunderground v.1.15,2013-04-23 03:47:00,
2013-04-22 23:52:00,69.9,68.7,30.04,NE,46,0.0,1.0,96,0.00,,,0.29,Wunderground v.1.15,2013-04-23 03:52:00,
2013-04-22 23:57:00,70.0,68.8,30.03,NE,44,0.0,1.0,96,0.00,,,0.29,Wunderground v.1.15,2013-04-23 03:57:00,